Location: Unspecified
(38.9820°N, 94.4650°W)
Time: 05:01:53
(UTC-05:00)

Okean 3 - Visible Passes

Search period start: 28 May 2015 00:00
Search period end: 07 June 2015 00:00
Orbit: 581 x 605 km, 82.5° (Epoch: 27 May)

Date Brightness Start Highest point End Pass type
(mag) Time Alt. Az. Time Alt. Az. Time Alt. Az.
28 May 4.0 04:59:09 10° N 05:03:25 64° E 05:07:36 10° SSE visible
29 May 3.4 05:08:17 10° N 05:12:34 80° W 05:16:47 10° S visible
30 May 6.5 03:42:13 10° NE 03:43:56 12° ENE 03:45:51 10° E visible
30 May 3.7 05:17:33 10° NNW 05:21:40 49° W 05:25:44 10° SSW visible
31 May 6.1 03:50:19 10° NNE 03:53:18 19° ENE 03:56:23 10° ESE visible
01 Jun 5.4 03:58:56 10° NNE 04:02:37 28° ENE 04:06:19 10° SE visible
02 Jun 4.6 04:07:47 10° N 04:11:52 44° E 04:15:54 10° SSE visible
03 Jun 3.7 04:16:48 10° N 04:21:03 72° E 04:25:14 10° SSE visible
04 Jun 3.4 04:25:57 10° NNW 04:30:11 71° W 04:34:15 11° S visible
05 Jun 6.2 02:59:33 10° NE 03:01:36 14° ENE 03:03:51 10° ESE visible
05 Jun 3.8 04:35:14 10° NNW 04:39:17 44° W 04:42:39 14° SSW visible
06 Jun 5.8 03:07:49 10° NNE 03:10:58 20° ENE 03:14:11 10° ESE visible
06 Jun 4.5 04:44:42 10° NNW 04:48:21 28° W 04:51:07 14° SW visible
